����,�C�@��,���@�x,���@��,���@��,���@��,�ϐ�[,�ϐ�d��1,�ϐ�d��2,�ϐ�d��3,�J�@��,�~��o��,�~�ይ�x�i��j,�~�ይ�x�i���j,�~�ይ�x�i���j,���,�Z��~����1,�Z��~����2,�Z��~����3,�Z��~����4,�J�ᔻ��,�Z���T���x
����,��,��,kw/�u,��,m/s,cm,kg/�u,kg/�u,kg/�u,mm,1=�L_0=��,1=�L_0=��,1=�L_0=��,1=�L_0=��,p,p,p,p,p,��,��
2020-11-01 00:00:00,8.57,88.80,0.001,203.60,0.22,0.0,1.24,0.00,-322.33,0.0,0,0,0,0,0,0.00,0.00,0.00,0.00,6.67,-203.30
2020-11-01 00:10:00,8.86,88.00,0.002,207.70,0.25,0.0,-0.46,0.00,-322.33,0.0,0,0,0,0,0,0.00,0.00,0.00,0.00,7.46,-203.50
2020-11-01 00:20:00,9.06,86.20,0.000,210.40,0.68,0.0,2.93,0.00,-332.83,0.0,0,0,0,0,0,0.00,0.00,0.00,0.00,7.75,-203.50
2020-11-01 00:30:00,9.02,85.50,0.000,195.40,0.17,0.0,-0.46,0.00,-324.02,0.0,0,0,0,0,0,0.00,0.00,0.00,0.00,7.37,-203.10
2020-11-01 00:40:00,8.94,85.30,0.000,223.90,0.23,0.0,3.27,0.00,-322.33,0.0,0,0,0,0,0,0.00,0.00,0.00,0.00,7.25,-203.10
2020-11-01 00:50:00,8.82,84.60,0.000,151.10,0.19,0.0,0.22,0.00,-321.31,0.0,0,0,0,0,0,0.00,0.00,0.00,0.00,7.09,-202.80
2020-11-01 01:00:00,8.86,84.10,0.001,197.70,0.18,0.0,2.59,0.00,-319.96,0.0,0,0,0,0,0,0.00,0.00,0.00,0.00,7.09,-202.70
2020-11-01 01:10:00,8.94,83.40,0.000,210.50,0.22,0.0,0.90,0.00,-319.62,0.0,0,0,0,0,0,0.00,0.00,0.00,0.00,7.33,-202.30
2020-11-01 01:20:00,9.02,82.60,0.001,212.50,0.18,0.0,3.61,0.00,-317.59,0.0,0,0,0,0,0,0.00,0.00,0.00,0.00,7.58,-202.40
2020-11-01 01:30:00,9.02,82.40,0.000,213.70,0.35,0.0,-0.46,0.00,-317.25,0.0,0,0,0,0,0,0.00,0.00,0.00,0.00,7.70,-201.90
2020-11-01 01:40:00,8.61,82.40,0.000,84.20,0.24,0.0,3.60,0.00,-315.21,0.0,0,0,0,0,0,0.00,0.00,0.00,0.00,7.21,-202.20
2020-11-01 01:50:00,8.20,84.20,0.000,0.00,0.14,0.0,3.61,0.00,-314.54,0.0,0,0,0,0,0,0.00,0.00,0.00,0.00,6.76,-201.80
2020-11-01 02:00:00,8.32,85.30,0.000,0.00,0.16,0.0,0.90,0.00,-317.93,0.0,0,0,0,0,0,0.00,0.00,0.00,0.00,6.76,-201.80
2020-11-01 02:10:00,8.44,84.50,0.000,134.60,0.21,0.0,1.57,0.00,-317.59,0.0,0,0,0,0,0,0.00,0.00,0.00,0.00,6.67,-201.80
2020-11-01 02:20:00,8.28,84.40,0.000,128.00,0.14,0.0,3.60,0.00,-317.92,0.0,0,0,0,0,0,0.00,0.00,0.00,0.00,6.51,-201.70
2020-11-01 02:30:00,8.20,84.90,0.000,116.60,0.20,0.0,0.90,0.00,-318.27,0.0,0,0,0,0,0,0.00,0.00,0.00,0.00,6.39,-201.50
2020-11-01 02:40:00,7.95,85.00,0.000,89.30,0.18,0.0,3.61,0.00,-317.25,0.0,0,0,0,0,0,0.00,0.00,0.00,0.00,6.30,-201.90
2020-11-01 02:50:00,7.87,85.40,0.002,95.70,0.19,0.0,3.61,0.00,-317.25,0.0,0,0,0,0,0,0.00,0.00,0.00,0.00,6.43,-201.70
2020-11-01 03:00:00,7.87,86.00,0.002,129.50,0.26,0.0,3.94,0.00,-316.57,0.0,0,0,0,0,0,0.00,0.00,0.00,0.00,6.59,-201.30
2020-11-01 03:10:00,8.49,83.20,0.002,211.90,0.18,0.0,3.94,0.00,-315.22,0.0,0,0,0,0,0,0.00,0.00,0.00,0.00,7.17,-201.50
2020-11-01 03:20:00,8.61,82.00,0.000,207.50,0.13,0.0,0.22,0.00,-317.59,0.0,0,0,0,0,0,0.00,0.00,0.00,0.00,7.09,-202.10
2020-11-01 03:30:00,8.69,81.00,0.000,230.20,0.34,0.0,0.22,0.00,-318.60,0.0,0,0,0,0,0,0.00,0.00,0.00,0.00,7.21,-201.80
2020-11-01 03:40:00,8.61,80.40,0.000,219.80,0.42,0.0,2.93,0.00,-316.91,0.0,0,0,0,0,0,0.00,0.00,0.00,0.00,7.13,-201.90
2020-11-01 03:50:00,8.69,79.60,0.000,208.70,0.29,0.0,0.22,0.00,-317.25,0.0,0,0,0,0,0,0.00,0.00,0.00,0.00,7.00,-201.80
2020-11-01 04:00:00,8.65,79.06,0.000,197.00,0.31,0.0,4.28,0.00,-316.57,0.0,0,0,0,0,0,0.00,0.00,0.00,0.00,6.84,-201.60
2020-11-01 04:10:00,8.65,78.62,0.000,138.10,0.19,0.0,-0.46,0.00,-313.86,0.0,0,0,0,0,0,0.00,0.00,0.00,0.00,6.84,-202.00
2020-11-01 04:20:00,8.20,79.77,0.000,78.36,0.20,0.0,3.61,0.00,-314.54,0.0,0,0,0,0,0,0.00,0.00,0.00,0.00,6.59,-201.30
2020-11-01 04:30:00,7.95,82.50,0.000,11.76,0.20,0.0,-0.46,0.00,-314.87,0.0,0,0,0,0,0,0.00,0.00,0.00,0.00,6.51,-201.50
2020-11-01 04:40:00,8.16,82.40,0.000,151.30,0.21,0.0,3.61,0.00,-315.56,0.0,0,0,0,0,0,0.00,0.00,0.00,0.00,6.51,-201.00
2020-11-01 04:50:00,8.12,81.60,0.000,134.80,0.16,0.0,3.60,0.00,-323.34,0.0,0,0,0,0,0,0.00,0.00,0.00,0.00,6.43,-201.20
2020-11-01 05:00:00,7.95,82.20,0.000,149.90,0.11,0.0,2.25,0.00,-324.36,0.0,0,0,0,0,0,0.00,0.00,0.00,0.00,6.10,-201.20
2020-11-01 05:10:00,7.79,82.40,0.000,140.10,0.15,0.0,-0.46,0.00,-316.90,0.0,0,0,0,0,0,0.00,0.00,0.00,0.00,5.93,-201.00
2020-11-01 05:20:00,7.66,83.10,0.000,115.90,0.17,0.1,-1.14,0.00,-314.20,0.0,0,0,0,0,0,0.00,0.00,0.00,0.00,5.52,-200.90
2020-11-01 05:30:00,7.58,83.60,0.002,132.90,0.16,0.1,0.22,0.00,-315.89,0.0,0,0,0,0,0,0.00,0.00,0.00,0.00,5.77,-201.60
2020-11-01 05:40:00,7.54,83.50,0.001,111.00,0.18,0.1,-0.46,0.00,-317.24,0.0,0,0,0,0,0,0.00,0.00,0.00,0.00,6.01,-202.70
2020-11-01 05:50:00,7.62,83.00,0.000,200.30,0.19,0.1,3.60,0.00,-315.89,0.0,0,0,0,0,0,0.00,0.00,0.00,0.00,6.18,-203.20
2020-11-01 06:00:00,7.50,83.00,0.001,161.10,0.37,0.1,-0.46,0.00,-316.23,0.0,0,0,0,0,0,0.00,0.00,0.00,0.00,6.14,-202.70
2020-11-01 06:10:00,7.66,82.10,0.003,192.80,0.24,0.1,1.91,0.00,-316.56,0.0,0,0,0,0,0,0.00,0.00,0.00,0.00,6.47,-203.60
2020-11-01 06:20:00,7.70,82.00,0.011,218.60,0.13,0.1,-0.46,0.00,-324.69,0.0,0,0,0,0,0,0.00,0.00,0.00,0.00,6.39,-203.60
2020-11-01 06:30:00,7.87,81.80,0.023,0.00,0.17,0.1,2.92,0.00,-325.70,0.0,0,0,0,0,0,0.00,0.00,0.00,0.00,6.30,-203.10
2020-11-01 06:40:00,8.07,80.80,0.043,157.30,0.13,0.1,-0.46,0.00,-317.24,0.0,0,0,0,0,0,0.00,0.00,0.00,0.00,6.63,-203.00
2020-11-01 06:50:00,7.95,80.30,0.056,74.13,0.15,0.1,1.57,0.00,-317.58,0.0,0,0,0,0,0,0.00,0.00,0.00,0.00,6.80,-202.90
2020-11-01 07:00:00,7.79,81.60,0.061,57.11,0.14,0.1,-0.46,0.00,-317.24,0.0,0,0,0,0,0,0.00,0.00,0.00,0.00,6.59,-203.40
2020-11-01 07:10:00,7.99,81.50,0.068,129.70,0.17,0.1,0.22,0.00,-315.55,0.0,0,0,0,0,0,0.00,0.00,0.00,0.00,7.04,-203.80
2020-11-01 07:20:00,8.36,79.43,0.093,203.70,0.37,0.1,-0.46,0.00,-313.85,0.0,0,0,0,0,0,0.00,0.00,0.00,0.00,7.66,-203.70
2020-11-01 07:30:00,8.69,78.65,0.199,203.60,0.14,0.0,3.60,0.00,-312.84,0.0,0,0,0,0,0,0.00,0.00,0.00,0.00,8.36,-203.30
2020-11-01 07:40:00,9.02,77.70,0.249,140.80,0.20,0.0,3.60,0.00,-312.16,0.0,0,0,0,0,0,0.00,0.00,0.00,0.00,9.06,-203.20
2020-11-01 07:50:00,9.44,75.87,0.137,178.20,0.31,0.0,4.28,0.00,-308.44,0.0,0,0,0,0,0,0.00,0.00,0.00,0.00,9.52,-202.30
2020-11-01 08:00:00,9.60,76.14,0.119,150.90,0.15,0.0,3.60,0.00,-314.87,0.0,0,0,0,0,0,0.00,0.00,0.00,0.00,9.64,-200.70
2020-11-01 08:10:00,9.97,74.18,0.145,210.20,0.15,0.0,2.25,0.00,-308.44,0.0,0,0,0,0,0,0.00,0.00,0.00,0.00,10.09,-199.50
2020-11-01 08:20:00,10.18,72.66,0.395,222.40,0.14,0.0,3.60,0.00,-304.04,0.0,0,0,0,0,0,0.00,0.00,0.00,0.00,10.42,-198.30
2020-11-01 08:30:00,10.84,70.49,0.428,187.80,0.14,0.0,2.59,0.00,-301.67,0.0,0,0,0,0,0,0.00,0.00,0.00,0.00,10.84,-197.60
2020-11-01 08:40:00,11.58,67.41,0.382,138.50,0.15,0.0,1.57,0.00,-298.63,0.0,0,0,0,0,0,0.00,0.00,0.00,0.00,11.62,-196.40
2020-11-01 08:50:00,12.24,65.65,0.407,159.50,0.11,0.0,-0.46,0.00,-296.94,0.0,0,0,0,0,0,0.00,0.00,0.00,0.00,12.03,-195.70
2020-11-01 09:00:00,12.28,64.94,0.321,189.60,0.40,0.0,3.61,0.00,-293.89,0.0,0,0,0,0,0,0.00,0.00,0.00,0.00,12.53,-194.30
2020-11-01 09:10:00,12.49,64.97,0.198,145.20,0.14,0.0,3.61,0.00,-291.52,0.0,0,0,0,0,0,0.00,0.00,0.00,0.00,13.44,-194.00
2020-11-01 09:20:00,12.65,66.09,0.577,0.00,0.15,0.0,2.25,0.00,-289.48,0.0,0,0,0,0,0,0.00,0.00,0.00,25.00,16.16,-193.30
2020-11-01 09:30:00,12.81,65.35,0.534,129.00,0.20,0.0,-0.46,0.00,-291.18,0.0,0,0,0,0,0,0.00,0.00,0.00,0.00,15.04,-193.60
2020-11-01 09:40:00,13.78,62.94,0.532,187.90,0.15,0.0,2.93,0.00,-289.83,0.0,0,0,0,0,0,0.00,0.00,0.00,0.00,14.93,-193.50
2020-11-01 09:50:00,14.35,56.98,0.376,195.70,0.56,0.0,-0.80,0.00,-284.07,0.0,0,0,0,0,0,0.00,0.00,0.00,0.00,15.80,-193.60
2020-11-01 10:00:00,15.01,54.48,0.565,196.70,0.46,0.0,-1.13,0.00,-280.01,0.0,0,0,0,0,0,0.00,0.00,0.00,0.00,18.52,-193.30
2020-11-01 10:10:00,15.31,51.60,0.543,196.80,0.24,0.0,1.57,0.00,-276.62,0.0,0,0,0,0,0,0.00,0.00,0.00,0.00,21.43,-192.40
2020-11-01 10:20:00,16.21,47.88,0.586,211.00,0.24,0.0,2.93,0.00,-273.24,0.0,0,0,0,0,0,0.00,0.00,0.00,0.00,18.44,-191.70
2020-11-01 10:30:00,16.16,44.35,0.620,212.80,0.24,0.0,0.22,0.00,-270.19,0.0,0,0,0,0,0,0.00,0.00,0.00,0.00,20.55,-193.50
2020-11-01 10:40:00,16.78,41.24,0.296,201.70,0.15,0.0,0.56,0.00,-265.79,0.0,0,0,0,0,0,0.00,0.00,0.00,0.00,18.15,-194.30
2020-11-01 10:50:00,17.40,38.80,0.405,178.80,0.12,0.0,-1.81,0.00,-261.72,0.0,0,0,0,0,0,0.00,0.00,0.00,0.00,18.47,-192.00
2020-11-01 11:00:00,17.56,34.70,0.513,182.00,0.22,0.0,-0.46,0.00,-260.37,0.0,0,0,0,0,0,0.00,0.00,0.00,0.00,19.21,-192.60
2020-11-01 11:10:00,17.30,36.06,0.230,176.50,0.26,0.0,0.22,0.00,-255.29,0.0,0,0,0,0,0,0.00,0.00,0.00,0.00,19.28,-191.00
2020-11-01 11:20:00,17.12,35.45,0.290,210.20,0.23,0.0,-2.49,0.00,-251.90,0.0,0,0,0,0,0,0.00,0.00,0.00,0.00,19.31,-190.70
2020-11-01 11:30:00,17.62,33.96,0.445,203.50,0.28,0.0,-2.15,0.00,-250.55,0.0,0,0,0,0,0,0.00,0.00,0.00,0.00,21.34,-189.80
2020-11-01 11:40:00,17.91,35.52,0.668,214.70,0.23,0.0,-1.81,0.00,-246.83,0.0,0,0,0,0,0,0.00,0.00,0.00,0.00,22.16,-190.30
2020-11-01 11:50:00,17.91,34.03,0.319,212.50,0.25,0.0,1.58,0.00,-246.50,0.0,0,0,0,0,0,0.00,0.00,0.00,0.00,20.68,-194.30
2020-11-01 12:00:00,18.36,33.05,0.373,212.50,0.21,0.0,-1.81,0.00,-246.50,0.0,0,0,0,0,0,0.00,0.00,0.00,0.00,21.83,-194.90
2020-11-01 12:10:00,18.69,33.69,0.421,179.30,0.20,0.0,-1.80,0.00,-245.84,0.0,0,0,0,0,0,0.00,0.00,0.00,0.00,21.71,-195.10
2020-11-01 12:20:00,18.61,35.35,0.253,116.20,0.25,0.0,0.91,0.00,-248.56,0.0,0,0,0,0,0,0.00,0.00,0.00,0.00,20.55,-197.50
2020-11-01 12:30:00,18.77,37.62,0.217,26.84,0.22,0.0,1.59,0.00,-253.30,0.0,0,0,0,0,0,0.00,0.00,0.00,0.00,20.71,-196.70
2020-11-01 12:40:00,18.74,37.76,0.184,0.00,0.22,0.0,-1.46,0.00,-259.06,0.0,0,0,0,0,0,0.00,0.00,0.00,0.00,20.22,-197.90
2020-11-01 12:50:00,18.85,38.03,0.151,8.98,0.24,0.0,-0.78,0.00,-257.37,0.0,0,0,0,0,0,0.00,0.00,0.00,0.00,20.05,-198.30
2020-11-01 13:00:00,18.69,40.84,0.136,0.00,0.23,0.0,3.28,0.00,-257.70,0.0,0,0,0,0,0,0.00,23.00,0.00,0.00,19.68,-199.70
2020-11-01 13:10:00,18.60,42.40,0.201,135.60,0.26,0.0,-1.12,0.00,-259.40,0.0,0,0,0,0,0,0.00,0.00,0.00,0.00,19.88,-199.90
2020-11-01 13:20:00,18.44,39.86,0.177,197.20,0.24,0.0,-1.79,0.00,-260.41,0.0,0,0,0,0,0,0.00,0.00,0.00,0.00,19.64,-199.40
2020-11-01 13:30:00,18.53,39.79,0.119,206.10,0.32,0.0,2.95,0.00,-262.44,0.0,0,0,0,0,0,0.00,0.00,0.00,0.00,19.60,-200.30
2020-11-01 13:40:00,18.74,38.84,0.100,208.40,0.26,0.0,-1.79,0.00,-264.82,0.0,0,0,0,0,0,0.00,0.00,0.00,0.00,19.28,-199.90
2020-11-01 13:50:00,18.45,36.17,0.087,210.90,0.36,0.0,-1.12,0.00,-272.60,0.0,0,0,0,0,0,0.00,0.00,0.00,0.00,18.78,-200.60
2020-11-01 14:00:00,18.28,38.67,0.084,200.10,0.26,0.0,-0.44,0.00,-274.64,0.0,0,0,0,0,0,0.00,0.00,0.00,0.00,18.40,-202.10
2020-11-01 14:10:00,18.44,41.04,0.130,189.30,0.24,0.0,1.59,0.00,-278.02,0.0,0,0,0,0,0,0.00,0.00,0.00,0.00,18.69,-202.60
2020-11-01 14:20:00,18.36,42.60,0.183,187.40,0.26,0.0,1.59,0.00,-279.38,0.0,0,0,0,0,0,0.00,0.00,0.00,0.00,18.98,-202.80
2020-11-01 14:30:00,18.53,46.80,0.140,128.60,0.24,0.0,-1.79,0.00,-280.05,0.0,0,0,0,0,0,0.00,0.00,0.00,0.00,19.48,-202.30
2020-11-01 14:40:00,18.20,48.02,0.105,69.83,0.17,0.0,0.91,0.00,-280.73,0.0,0,0,0,0,0,0.00,0.00,0.00,0.00,18.61,-201.80
2020-11-01 14:50:00,18.28,47.17,0.077,214.60,0.17,0.0,-1.12,0.00,-281.41,0.0,0,0,0,0,0,0.00,0.00,0.00,0.00,18.36,-201.60
2020-11-01 15:00:00,18.28,44.63,0.091,195.40,0.23,0.0,2.95,0.00,-283.44,0.0,0,0,0,0,0,0.00,0.00,0.00,0.00,18.24,-201.40
2020-11-01 15:10:00,18.53,49.51,0.060,160.00,0.20,0.0,2.27,0.00,-284.46,0.0,0,0,0,0,0,0.00,0.00,0.00,0.00,18.32,-200.70
2020-11-01 15:20:00,17.91,51.61,0.046,141.40,0.20,0.0,-1.12,0.00,-290.55,0.0,0,0,0,0,0,0.00,0.00,0.00,0.00,17.45,-200.70
2020-11-01 15:30:00,17.62,53.20,0.059,154.60,0.29,0.0,3.62,0.00,-293.60,0.0,0,0,0,0,0,0.00,0.00,0.00,0.00,17.24,-199.90
2020-11-01 15:40:00,17.55,53.84,0.034,193.60,0.20,0.0,-0.78,0.00,-292.25,0.0,0,0,0,0,0,0.00,0.00,0.00,0.00,17.01,-199.60
2020-11-01 15:50:00,17.46,56.28,0.020,155.10,0.20,0.0,3.62,0.00,-292.58,0.0,0,0,0,0,0,0.00,0.00,0.00,0.00,16.55,-199.30
2020-11-01 16:00:00,16.51,60.38,0.008,135.50,0.26,0.0,-1.46,0.00,-292.25,0.0,0,0,0,0,0,0.00,0.00,0.00,0.00,15.88,-198.90
2020-11-01 16:10:00,16.05,61.26,0.009,183.60,0.24,0.0,-1.12,0.00,-294.28,0.0,0,0,0,0,0,0.00,0.00,0.00,0.00,15.34,-198.50
2020-11-01 16:20:00,16.04,60.68,0.008,215.80,0.23,0.0,2.27,0.00,-296.31,0.0,0,0,0,0,0,0.00,0.00,0.00,0.00,15.29,-198.90
2020-11-01 16:30:00,16.13,55.98,0.005,168.30,0.19,0.0,3.28,0.00,-298.34,0.0,0,0,0,0,0,0.00,0.00,0.00,0.00,15.22,-199.70
2020-11-01 16:40:00,15.85,54.79,0.001,0.00,0.20,0.0,2.26,0.00,-298.67,0.0,0,0,0,0,0,0.00,0.00,0.00,0.00,14.81,-199.50
2020-11-01 16:50:00,15.73,56.72,0.000,190.50,0.27,0.0,0.91,0.00,-300.70,0.0,0,0,0,0,0,0.00,0.00,0.00,0.00,14.65,-199.50
2020-11-01 17:00:00,15.73,58.75,0.000,198.70,0.20,0.0,3.62,0.00,-308.16,0.0,0,0,0,0,0,0.00,0.00,0.00,0.00,14.49,-199.00
2020-11-01 17:10:00,14.67,61.93,0.000,59.14,0.22,0.0,-0.45,0.00,-306.79,0.0,0,0,0,0,0,0.00,0.00,0.00,0.00,13.63,-200.50
2020-11-01 17:20:00,14.26,64.40,0.000,0.00,0.26,0.0,-1.13,0.00,-307.12,0.0,0,0,0,0,0,0.00,0.00,0.00,0.00,13.10,-200.30
2020-11-01 17:30:00,14.59,63.79,0.000,157.80,0.23,0.0,2.26,0.00,-308.13,0.0,0,0,0,0,0,0.00,0.00,0.00,0.00,13.39,-201.10
2020-11-01 17:40:00,15.00,63.42,0.001,200.40,0.15,0.0,2.26,0.00,-308.80,0.0,0,0,0,0,0,0.00,0.00,0.00,0.00,13.64,-199.90
2020-11-01 17:50:00,14.83,64.33,0.000,207.40,0.33,0.0,-1.13,0.00,-309.80,0.0,0,0,0,0,0,0.00,0.00,0.00,0.00,13.63,-200.50
2020-11-01 18:00:00,14.75,65.14,0.000,207.20,0.30,0.0,-1.13,0.00,-310.48,0.0,0,0,0,0,0,0.00,0.00,0.00,0.00,13.64,-198.80
2020-11-01 18:10:00,14.67,65.24,0.000,196.10,0.29,0.0,3.61,0.00,-310.48,0.0,0,0,0,0,0,0.00,0.00,0.00,0.00,13.55,-197.10
2020-11-01 18:20:00,14.59,65.72,0.000,192.70,0.41,0.0,3.61,0.00,-310.48,0.0,0,0,0,0,0,0.00,0.00,0.00,0.00,13.47,-197.20
2020-11-01 18:30:00,14.51,65.99,0.000,166.70,0.48,0.0,3.61,0.00,-318.61,0.0,0,0,0,0,0,0.00,0.00,0.00,0.00,13.39,-196.10
2020-11-01 18:40:00,14.59,63.96,0.000,191.90,0.36,0.0,2.93,0.00,-312.85,0.0,0,0,0,0,0,0.00,0.00,0.00,0.00,13.39,-196.80
2020-11-01 18:50:00,14.67,61.99,0.001,212.30,0.29,0.0,3.61,0.00,-313.19,0.0,0,0,0,0,0,0.00,0.00,0.00,0.00,13.56,-196.50
2020-11-01 19:00:00,14.84,59.35,0.001,213.90,0.31,0.0,0.22,0.00,-313.19,0.0,0,0,0,0,0,0.00,0.00,0.00,0.00,13.72,-196.40
2020-11-01 19:10:00,14.92,59.29,0.000,210.60,0.66,0.0,-1.81,0.00,-311.83,0.0,0,0,0,0,0,0.00,0.00,0.00,0.00,13.72,-195.60
2020-11-01 19:20:00,14.88,57.15,0.000,178.20,0.57,0.0,2.93,0.00,-312.85,0.0,0,0,0,0,0,0.00,0.00,0.00,0.00,13.89,-195.80
2020-11-01 19:30:00,15.17,54.41,0.000,198.60,0.26,0.0,-1.13,0.00,-311.16,0.0,0,0,0,0,0,0.00,0.00,0.00,0.00,14.05,-195.20
2020-11-01 19:40:00,14.68,57.46,0.000,210.30,0.28,0.0,3.61,0.00,-311.16,0.0,0,0,0,0,0,0.00,0.00,0.00,0.00,13.72,-194.70
2020-11-01 19:50:00,15.05,56.78,0.000,208.60,0.71,0.0,0.90,0.00,-310.14,0.0,0,0,0,0,0,0.00,0.00,0.00,0.00,13.97,-194.50
2020-11-01 20:00:00,14.18,64.30,0.000,207.20,1.89,0.0,0.22,0.00,-310.82,0.0,0,0,0,0,0,0.00,0.00,0.00,0.00,13.31,-193.90
2020-11-01 20:10:00,14.10,64.87,0.000,210.00,1.84,0.0,3.27,0.00,-311.49,0.0,0,0,0,0,0,0.00,0.00,0.00,0.00,13.15,-194.00
2020-11-01 20:20:00,13.97,63.89,0.002,209.50,1.72,0.0,-1.81,0.00,-311.16,0.0,0,0,0,0,0,0.00,0.00,0.00,0.00,13.39,-194.10
2020-11-01 20:30:00,13.89,65.18,0.000,211.40,1.44,0.0,0.90,0.00,-310.14,0.0,0,0,0,0,0,0.00,0.00,0.00,0.00,13.10,-195.60
2020-11-01 20:40:00,13.93,65.01,0.000,206.30,1.45,0.0,1.91,0.00,-310.14,0.0,0,0,0,0,0,0.00,0.00,0.00,0.00,13.23,-194.20
2020-11-01 20:50:00,14.06,63.15,0.000,212.80,1.88,0.0,-1.13,0.00,-309.80,0.0,0,0,0,0,0,0.00,0.00,0.00,0.00,13.27,-194.30
2020-11-01 21:00:00,14.02,63.38,0.000,211.40,1.86,0.0,2.59,0.00,-309.12,0.0,0,0,0,0,0,0.00,0.00,0.00,0.00,13.19,-193.90
2020-11-01 21:10:00,13.85,63.89,0.000,215.10,2.25,0.0,3.61,0.00,-308.45,0.0,0,0,0,0,0,0.00,0.00,0.00,0.00,12.98,-193.80
2020-11-01 21:20:00,13.85,63.69,0.000,212.80,2.22,0.0,-0.46,0.00,-308.45,0.0,0,0,0,0,0,0.00,0.00,0.00,0.00,12.98,-194.40
2020-11-01 21:30:00,13.77,63.92,0.000,217.30,1.57,0.0,-1.13,0.00,-308.79,0.0,0,0,0,0,0,0.00,0.00,0.00,0.00,13.02,-193.50
2020-11-01 21:40:00,13.85,63.35,0.000,214.30,1.78,0.0,3.61,0.00,-315.56,0.0,0,0,0,0,0,0.00,0.00,0.00,0.00,13.06,-192.50
2020-11-01 21:50:00,13.93,62.16,0.000,212.00,1.75,0.0,3.27,0.00,-308.11,0.0,0,0,0,0,0,0.00,0.00,0.00,0.00,12.98,-192.40
2020-11-01 22:00:00,13.77,62.54,0.000,209.20,2.17,0.0,3.27,0.00,-309.46,0.0,0,0,0,0,0,0.00,0.00,0.00,0.00,12.90,-191.10
2020-11-01 22:10:00,13.68,62.81,0.000,206.10,1.58,0.0,2.93,0.00,-309.80,0.0,0,0,0,0,0,0.00,0.00,0.00,0.00,12.77,-191.00
2020-11-01 22:20:00,13.60,62.67,0.000,208.70,1.08,0.0,3.61,0.00,-309.12,0.0,0,0,0,0,0,0.00,0.00,0.00,0.00,12.69,-191.70
2020-11-01 22:30:00,13.52,62.81,0.000,210.00,1.50,0.0,1.57,0.00,-308.45,0.0,0,0,0,0,0,0.00,0.00,0.00,0.00,12.57,-192.30
2020-11-01 22:40:00,13.68,61.89,0.000,210.80,1.66,0.0,1.57,0.00,-308.45,0.0,0,0,0,0,0,0.00,0.00,0.00,0.00,12.57,-191.60
2020-11-01 22:50:00,13.69,61.25,0.000,204.40,1.11,0.0,-1.13,0.00,-309.46,0.0,0,0,0,0,0,0.00,0.00,0.00,0.00,12.57,-190.20
2020-11-01 23:00:00,13.77,60.71,0.000,210.40,1.57,0.0,-1.13,0.00,-310.14,0.0,0,0,0,0,0,0.00,0.00,0.00,0.00,12.82,-189.80
2020-11-01 23:10:00,13.77,60.30,0.000,208.30,1.79,0.0,2.25,0.00,-306.75,0.0,0,0,0,0,0,0.00,0.00,0.00,0.00,12.73,-189.60
2020-11-01 23:20:00,13.89,60.23,0.000,212.00,2.11,0.0,3.61,0.00,-311.16,0.0,0,0,0,0,0,0.00,0.00,0.00,0.00,12.86,-188.80
2020-11-01 23:30:00,14.01,59.59,0.000,217.10,1.62,0.0,0.90,0.00,-309.80,0.0,0,0,0,0,0,0.00,0.00,0.00,0.00,13.14,-189.20
2020-11-01 23:40:00,14.01,59.32,0.000,202.20,1.34,0.0,3.61,0.00,-310.82,0.0,0,0,0,0,0,0.00,0.00,0.00,0.00,13.23,-189.50
2020-11-01 23:50:00,13.93,60.13,0.000,210.20,1.37,0.0,2.25,0.00,-308.79,0.0,0,0,0,0,0,0.00,0.00,0.00,0.00,13.06,-188.40
2020-11-02 00:00:00,13.77,61.55,0.000,208.60,1.21,0.0,3.94,0.00,-309.46,0.0,0,0,0,0,0,0.00,0.00,0.00,0.00,12.90,-188.60
2020-11-02 00:10:00,13.93,60.71,0.001,208.30,1.10,0.0,-1.47,0.00,-308.45,0.0,0,0,0,0,0,0.00,0.00,0.00,0.00,13.14,-188.40
2020-11-02 00:20:00,13.77,61.15,0.000,206.30,1.28,0.0,-1.13,0.00,-306.75,0.0,0,0,0,0,0,0.00,0.00,0.00,0.00,13.14,-187.60
2020-11-02 00:30:00,13.85,62.13,0.000,214.00,1.95,0.0,0.90,0.00,-308.11,0.0,0,0,0,0,0,0.00,0.00,0.00,0.00,13.06,-187.50
2020-11-02 00:40:00,13.68,62.71,0.000,209.10,2.68,0.0,0.22,0.00,-314.88,0.0,0,0,0,0,0,0.00,0.00,0.00,0.00,12.94,-187.40
2020-11-02 00:50:00,13.48,63.65,0.000,213.40,2.22,0.0,2.25,0.00,-310.14,0.0,0,0,0,0,0,0.00,0.00,0.00,0.00,12.90,-187.40
2020-11-02 01:00:00,13.85,61.99,0.001,212.50,2.03,0.0,3.61,0.00,-308.79,0.0,0,0,0,0,0,0.00,0.00,0.00,0.00,13.15,-187.70
2020-11-02 01:10:00,14.18,60.20,0.000,206.90,1.82,0.0,1.57,0.00,-309.80,0.0,0,0,0,0,0,0.00,0.00,0.00,0.00,13.48,-187.30
2020-11-02 01:20:00,14.34,59.49,0.000,204.10,1.71,0.0,3.61,0.00,-309.46,0.0,0,0,0,0,0,0.00,0.00,0.00,0.00,13.48,-187.50
2020-11-02 01:30:00,14.51,58.57,0.000,209.30,0.99,0.0,-0.46,0.00,-307.77,0.0,0,0,0,0,0,0.00,0.00,0.00,0.00,13.68,-187.10
2020-11-02 01:40:00,14.34,59.83,0.000,212.10,1.04,0.0,-0.46,0.00,-306.42,0.0,0,0,0,0,0,0.00,0.00,0.00,0.00,13.56,-186.90
2020-11-02 01:50:00,14.67,57.59,0.002,211.20,1.96,0.0,3.61,0.00,-304.72,0.0,0,0,0,0,0,0.00,0.00,0.00,0.00,13.81,-186.80
2020-11-02 02:00:00,14.51,58.07,0.000,212.70,1.51,0.0,-1.13,0.00,-305.06,0.0,0,0,0,0,0,0.00,0.00,0.00,0.00,13.80,-186.50
2020-11-02 02:10:00,14.18,60.00,0.000,183.70,0.63,0.0,3.61,0.00,-304.38,0.0,0,0,0,0,0,0.00,0.00,0.00,0.00,13.39,-186.50
2020-11-02 02:20:00,14.10,60.64,0.000,99.20,0.27,0.0,-1.13,0.00,-307.09,0.0,0,0,0,0,0,0.00,0.00,0.00,0.00,13.39,-185.80
2020-11-02 02:30:00,14.18,60.34,0.000,172.70,0.35,0.0,3.61,0.00,-304.05,0.0,0,0,0,0,0,0.00,0.00,0.00,0.00,13.39,-185.40
2020-11-02 02:40:00,14.01,61.15,0.000,125.10,0.24,0.0,3.61,0.00,-306.42,0.0,0,0,0,0,0,0.00,0.00,0.00,0.00,13.23,-185.70
2020-11-02 02:50:00,13.85,63.65,0.000,0.00,0.24,0.0,3.61,0.00,-304.05,0.0,0,0,0,0,0,0.00,0.00,0.00,0.00,12.82,-185.30
2020-11-02 03:00:00,13.48,65.82,0.000,0.00,0.27,0.0,3.61,0.00,-305.40,0.0,0,0,0,0,0,0.00,0.00,0.00,0.00,12.57,-185.80
2020-11-02 03:10:00,13.60,65.68,0.000,301.10,0.28,0.0,2.25,0.00,-305.74,0.0,0,0,0,0,0,0.00,22.00,0.00,0.00,12.81,-185.80
2020-11-02 03:20:00,13.60,66.57,0.000,191.40,0.25,0.0,0.22,0.00,-306.42,0.0,0,0,0,0,0,0.00,0.00,0.00,0.00,12.73,-185.50
2020-11-02 03:30:00,13.35,67.21,0.000,0.00,0.28,0.0,-1.13,0.00,-302.69,0.0,0,0,0,0,0,0.00,0.00,0.00,0.00,12.56,-185.30
2020-11-02 03:40:00,13.43,67.99,0.000,64.24,0.24,0.0,-1.13,0.00,-308.11,0.0,0,0,0,0,0,0.00,0.00,0.00,0.00,12.60,-184.50
2020-11-02 03:50:00,13.52,69.17,0.000,84.40,0.24,0.0,4.28,0.00,-308.79,0.0,0,0,0,0,0,0.00,0.00,0.00,0.00,12.03,-184.90
2020-11-02 04:00:00,13.27,71.44,0.000,115.30,0.20,0.0,3.61,0.00,-308.79,0.0,0,0,0,0,0,0.00,0.00,0.00,0.00,11.99,-184.70
2020-11-02 04:10:00,13.02,72.90,0.000,0.00,0.26,0.0,3.61,0.00,-307.43,0.0,0,0,0,0,0,0.00,0.00,0.00,0.00,12.03,-184.70
2020-11-02 04:20:00,13.10,73.84,0.000,0.00,0.20,0.0,2.93,0.00,-308.45,0.0,0,0,0,0,0,0.00,0.00,0.00,0.00,11.70,-184.80
2020-11-02 04:30:00,13.02,75.57,0.000,155.60,0.19,0.0,0.90,0.00,-308.11,0.0,0,0,0,0,0,0.00,0.00,0.00,0.00,11.37,-185.10
2020-11-02 04:40:00,12.94,77.84,0.000,83.30,0.24,0.0,0.90,0.00,-308.11,0.0,0,0,0,0,0,0.00,0.00,0.00,0.00,11.53,-184.30
2020-11-02 04:50:00,12.53,80.20,0.000,36.60,0.23,0.0,3.61,0.00,-309.12,0.0,0,0,0,0,0,0.00,0.00,0.00,25.00,11.29,-184.00
2020-11-02 05:00:00,12.53,81.30,0.000,0.00,0.24,0.0,-0.46,0.00,-315.56,0.0,0,0,0,0,0,0.00,0.00,0.00,0.00,11.57,-183.80
2020-11-02 05:10:00,12.69,81.50,0.001,294.30,0.23,0.0,-0.46,0.00,-310.82,0.0,0,0,0,0,0,0.00,0.00,0.00,0.00,11.66,-184.30
2020-11-02 05:20:00,12.73,80.60,0.000,0.00,0.32,0.0,3.61,0.00,-312.17,0.0,0,0,0,0,0,0.00,0.00,0.00,0.00,11.74,-183.70
2020-11-02 05:30:00,12.53,80.20,0.000,37.47,0.20,0.0,3.27,0.00,-310.82,0.0,0,0,0,0,0,0.00,0.00,0.00,0.00,11.70,-185.10
2020-11-02 05:40:00,12.45,80.60,0.000,0.00,0.23,0.0,-0.46,0.00,-310.82,0.0,0,0,0,0,0,0.00,0.00,0.00,0.00,11.70,-190.20
2020-11-02 05:50:00,12.54,80.20,0.000,0.00,0.28,0.0,3.27,0.00,-310.14,0.0,0,0,0,0,0,0.00,0.00,0.00,0.00,11.67,-189.70
2020-11-02 06:00:00,12.70,80.10,0.001,53.03,0.30,0.0,3.27,0.00,-309.46,0.0,0,0,0,0,0,0.00,0.00,0.00,0.00,11.75,-189.70
2020-11-02 06:10:00,12.82,78.21,0.002,210.50,0.20,0.0,-1.13,0.00,-308.45,0.0,0,0,0,0,0,0.00,0.00,0.00,0.00,11.83,-189.00
2020-11-02 06:20:00,12.69,77.77,0.001,167.80,0.18,0.0,3.61,0.00,-309.12,0.0,0,0,0,0,0,0.00,0.00,0.00,0.00,11.87,-189.30
2020-11-02 06:30:00,12.94,79.23,0.004,86.50,0.21,0.0,3.61,0.00,-315.56,0.0,0,0,0,0,0,0.00,0.00,0.00,0.00,11.91,-189.10
2020-11-02 06:40:00,12.78,81.40,0.014,0.00,0.24,0.0,3.27,0.00,-311.16,0.0,0,0,0,0,1,0.00,0.00,0.00,0.00,11.91,-188.50
2020-11-02 06:50:00,12.78,81.10,0.034,104.10,0.21,0.0,-0.46,0.00,-310.48,0.0,0,0,0,0,0,0.00,0.00,0.00,0.00,12.32,-188.60
2020-11-02 07:00:00,13.03,79.43,0.024,224.40,0.21,0.0,3.61,0.00,-309.80,0.0,0,0,0,0,0,0.00,0.00,0.00,0.00,12.49,-188.20
2020-11-02 07:10:00,13.15,79.06,0.048,0.00,0.23,0.0,3.61,0.00,-307.77,0.0,0,0,0,0,0,0.00,0.00,0.00,0.00,12.90,-188.40
2020-11-02 07:20:00,13.39,78.18,0.055,245.40,0.22,0.0,-1.13,0.00,-307.43,0.0,0,0,0,0,0,0.00,0.00,0.00,0.00,13.15,-187.70
2020-11-02 07:30:00,13.06,79.87,0.052,206.60,0.29,0.0,2.93,0.00,-306.08,0.0,0,0,0,0,0,0.00,0.00,0.00,0.00,12.81,-187.40
2020-11-02 07:40:00,13.02,81.00,0.032,203.80,0.24,0.0,2.93,0.00,-305.74,0.0,0,0,0,0,0,0.00,0.00,0.00,0.00,12.73,-187.20
2020-11-02 07:50:00,12.90,80.50,0.071,195.00,0.21,0.0,-1.13,0.00,-304.72,0.0,0,0,0,0,0,0.00,0.00,0.00,0.00,12.90,-186.90
2020-11-02 08:00:00,13.35,79.80,0.082,129.20,0.24,0.0,2.25,0.00,-311.16,0.0,0,0,0,0,0,0.00,0.00,0.00,0.00,13.39,-186.50
2020-11-02 08:10:00,13.48,78.92,0.067,66.15,0.18,0.0,-1.13,0.00,-304.38,0.0,0,0,0,0,0,0.00,0.00,0.00,0.00,13.47,-186.20
2020-11-02 08:20:00,13.56,79.47,0.093,83.60,0.19,0.0,3.61,0.00,-304.72,0.0,0,0,0,0,0,0.00,0.00,0.00,0.00,13.81,-185.50
2020-11-02 08:30:00,13.52,78.18,0.089,200.80,0.26,0.0,-0.46,0.00,-300.66,0.0,0,0,0,0,0,0.00,0.00,0.00,0.00,13.93,-184.90
2020-11-02 08:40:00,13.68,76.99,0.073,201.80,0.26,0.0,3.61,0.00,-300.66,0.0,0,0,0,0,0,0.00,0.00,0.00,0.00,13.89,-184.40
2020-11-02 08:50:00,13.89,76.15,0.056,212.60,0.32,0.0,-0.46,0.00,-298.63,0.0,0,0,0,0,0,0.00,0.00,0.00,0.00,13.97,-182.80